Home   Weather   Dothan   Past weeks
Flag for USA

Past Weather in Dothan, Alabama, USA — Yesterday and Last 2 Weeks

Now
76 °F

Clear.


Feels Like: 78 °F
Forecast: 98 / 69 °F
Wind: 5 mph from Southeast

Location: Dothan Airport

Current Time: May 25, 2019 at 12:37:25 am

Latest Report: May 24, 2019 at 11:53 pm


Visibility: 10 mi

Pressure: 30.10 "Hg

Humidity: 58%

Dew Point: 60 °F

Location of DothanLocation

Past Weather in Dothan — Graph

°F

Dothan Temperature Yesterday

Maximum temperature yesterday: 96 °F (at 2:53 pm)
Minimum temperature yesterday: 71 °F (at 4:53 am)
Average temperature yesterday: 83 °F

High & Low Weather Summary for the Past Weeks

 TemperatureHumidityPressure
High96 °F (May 24, 2:53 pm)97% (May 11, 4:38 am)30.24 "Hg (May 11, 4:38 am)
Low55 °F (May 15, 4:53 am)24% (May 23, 2:53 pm)29.80 "Hg (May 12, 6:53 pm)
Average77 °F62%30.01 "Hg
* Reported May 9 10:53 pm — May 24 10:53 pm, Dothan. Weather by CustomWeather, © 2019

Note: Actual official high and low records may vary slightly from our data, if they occured in-between our weather recording intervals... More about our weather records

Advertising

Dothan Weather History for the Previous 24 Hours

Scroll right to see more
 ConditionsComfort  
Time TempWeatherWind HumidityBarometerVisibility
10:53 pm
Fri, May 24
78 °FClear.No wind56%30.11 "Hg10 mi
9:53 pm80 °FClear.3 mph54%30.12 "Hg10 mi
8:53 pm82 °FClear.5 mph55%30.11 "Hg10 mi
7:53 pm87 °FClear.5 mph43%30.11 "Hg10 mi
6:53 pm92 °FSunny.7 mph33%30.11 "Hg10 mi
5:53 pm94 °FSunny.6 mph30%30.10 "Hg10 mi
4:53 pm95 °FScattered clouds.6 mph29%30.11 "Hg10 mi
3:53 pm95 °FPassing clouds.3 mph28%30.12 "Hg10 mi
2:53 pm96 °FScattered clouds.7 mph27%30.14 "Hg10 mi
1:53 pm94 °FScattered clouds.6 mph31%30.16 "Hg10 mi
12:53 pm92 °FPassing clouds.6 mph33%30.18 "Hg10 mi
11:53 am90 °FScattered clouds.3 mph39%30.19 "Hg10 mi
10:53 am88 °FSunny.No wind36%30.21 "Hg10 mi
9:53 am84 °FSunny.No wind57%30.22 "Hg10 mi
8:53 am81 °FSunny.5 mph62%30.21 "Hg10 mi
7:53 am78 °FSunny.7 mph66%30.20 "Hg10 mi
6:53 am75 °FSunny.8 mph71%30.19 "Hg10 mi
5:53 am72 °FSunny.3 mph84%30.17 "Hg10 mi
4:53 am71 °FClear.3 mph87%30.16 "Hg10 mi
3:53 am72 °FClear.No wind84%30.14 "Hg10 mi
2:53 am73 °FClear.No wind84%30.14 "Hg10 mi
1:53 am73 °FClear.No wind81%30.14 "Hg10 mi
12:53 am75 °FClear.No wind79%30.15 "Hg10 mi
Weather by CustomWeather, © 2019

See weather overview